Saint Cloud, MN

12:05 AM CST on January 20, 2017 (GMT -0600)
Saint Cloud Regional

Weather History for KSTC - May, 2014

Change the Weather History Date:

Thursday, May 8, 2014

  Actual Average Record
Temperature  
Mean Temperature 54 °F 54 °F  
Max Temperature 59 °F 67 °F 85 °F (1985)
Min Temperature 48 °F 42 °F 23 °F (1945)
Degree Days  
Heating Degree Days 11 11  
Month to date heating degree days 105 100  
Since 1 July heating degree days 9337 8267  
Cooling Degree Days 0 0  
Month to date cooling degree days 0 0  
Year to date cooling degree days 0 2  
Growing Degree Days 4 (Base 50)    
Moisture  
Dew Point 49 °F    
Average Humidity 83    
Maximum Humidity 89    
Minimum Humidity 77    
Precipitation  
Precipitation 0.88 in 0.10 in 1.20 in (1938)
Month to date precipitation 2.64 0.77  
Year to date precipitation 12.25 6.13  
Snow  
Snow 0.00 in 0.00 in 2.80 in (1938)
Month to date snowfall 0.0 0.0  
Since 1 July snowfall 75.5 45.7  
Snow Depth 0.00 in    
Sea Level Pressure  
Sea Level Pressure 29.67 in    
Wind  
Wind Speed 6 mph (NE)    
Max Wind Speed 25 mph    
Max Gust Speed 29 mph    
Visibility 6 miles    
Events Rain , Thunderstorm    
T = Trace of Precipitation, MM = Missing Value Source: NWS Daily Summary

Daily Weather History Graph

Daily Weather History Graph

Search for Another Location

Airport or City:

Trip Planner

Search our weather history database for the weather conditions in past years. The results will help you decide how hot, cold, wet, or windy it might be!

Date:

Astronomy

May. 08, 2014 Rise Set
Actual Time 5:54 AM CDT 8:32 PM CDT
Civil Twilight 5:20 AM CDT 9:05 PM CDT
Nautical Twilight 4:38 AM CDT 9:48 PM CDT
Astronomical Twilight 3:49 AM CDT 10:37 PM CDT
Moon 2:15 PM CDT (5/8) 2:44 AM CDT (5/8)
Length of Visible Light 15h 45m
Length of Day
14h 37m
Waxing Gibbous, 65% of the Moon is Illuminated
May 8
Waxing Gibbous
May 14
Full
May 21
Last Quarter
May 28
New
Jun 5
First Quarter

Hourly Weather History & Observations

Time (CDT) Temp. Dew Point Humidity Pressure Visibility Wind Dir Wind Speed Gust Speed Precip Events Conditions
12:05 AM 48.2 °F 44.6 °F 87% 29.74 in 8.0 mi NNE 6.9 mph - 0.00 in Rain Light Rain
12:53 AM 48.9 °F 45.0 °F 86% 29.73 in 9.0 mi NNE 9.2 mph - 0.00 in   Overcast
1:11 AM 48.2 °F 44.6 °F 87% 29.71 in 9.0 mi NNE 5.8 mph - N/A Thunderstorm Overcast
1:20 AM 48.2 °F 44.6 °F 87% 29.73 in 10.0 mi NE 5.8 mph - N/A   Overcast
1:38 AM 48.2 °F 44.6 °F 87% 29.71 in 10.0 mi NNE 5.8 mph - N/A Thunderstorm Overcast
1:53 AM 48.0 °F 45.0 °F 89% 29.72 in 9.0 mi NNE 8.1 mph - N/A Thunderstorm Overcast
2:17 AM 48.2 °F 44.6 °F 87% 29.68 in 8.0 mi NE 8.1 mph - N/A   Overcast
2:53 AM 48.9 °F 46.0 °F 90% 29.68 in 8.0 mi NE 5.8 mph - N/A   Overcast
3:03 AM 50.0 °F 46.4 °F 87% 29.70 in 8.0 mi Calm Calm - N/A Thunderstorm Thunderstorm
3:10 AM 48.2 °F 46.4 °F 93% 29.65 in 2.0 mi NNE 8.1 mph - 0.02 in Rain , Thunderstorm Light Thunderstorms and Rain
3:12 AM 48.2 °F 44.6 °F 87% 29.66 in 1.8 mi NE 4.6 mph - 0.10 in Rain , Thunderstorm Heavy Thunderstorms and Rain
3:21 AM 48.2 °F 46.4 °F 93% 29.66 in 3.0 mi NNE 5.8 mph - 0.19 in Rain , Thunderstorm Light Thunderstorms and Rain
3:53 AM 50.0 °F 46.0 °F 86% 29.71 in 5.0 mi ENE 3.5 mph - 0.19 in Thunderstorm Mostly Cloudy
3:56 AM 50.0 °F 46.4 °F 87% 29.74 in 5.0 mi Variable 4.6 mph - N/A Thunderstorm Mostly Cloudy
4:03 AM 50.0 °F 46.4 °F 87% 29.77 in 5.0 mi West 17.3 mph 28.8 mph 0.00 in Rain , Thunderstorm Light Thunderstorms and Rain
4:11 AM 51.8 °F 46.4 °F 82% 29.77 in 6.0 mi West 12.7 mph 21.9 mph 0.01 in Rain , Thunderstorm Light Thunderstorms and Rain
4:24 AM 51.8 °F 46.4 °F 82% 29.76 in 7.0 mi NW 9.2 mph - 0.01 in Rain Light Rain
4:31 AM 51.8 °F 46.4 °F 82% 29.74 in 5.0 mi North 6.9 mph - 0.01 in Rain Light Rain
4:53 AM 50.0 °F 46.9 °F 89% 29.73 in 7.0 mi NE 9.2 mph - 0.01 in   Mostly Cloudy
5:00 AM 50.0 °F 46.4 °F 87% 29.70 in 7.0 mi NE 10.4 mph - N/A   Scattered Clouds
5:28 AM 50.0 °F 46.4 °F 87% 29.75 in 9.0 mi SE 3.5 mph - N/A   Mostly Cloudy
5:37 AM 50.0 °F 46.4 °F 87% 29.74 in 9.0 mi Calm Calm - 0.00 in Rain Light Rain
5:53 AM 50.0 °F 46.0 °F 86% 29.75 in 8.0 mi NE 4.6 mph - 0.00 in   Overcast
6:53 AM 50.0 °F 46.0 °F 86% 29.75 in 5.0 mi North 4.6 mph - 0.00 in Rain Light Rain
7:53 AM 50.0 °F 46.0 °F 86% 29.72 in 5.0 mi NE 6.9 mph - 0.01 in   Mostly Cloudy
8:11 AM 50.0 °F 46.4 °F 87% 29.75 in 5.0 mi East 6.9 mph - 0.00 in Rain Light Rain
8:19 AM 50.0 °F 46.4 °F 87% 29.78 in 5.0 mi Variable 3.5 mph 24.2 mph 0.00 in Rain Light Rain
8:53 AM 50.0 °F 46.9 °F 89% 29.80 in 6.0 mi Calm Calm - 0.00 in   Overcast
9:19 AM 51.8 °F 46.4 °F 82% 29.76 in 6.0 mi NNE 3.5 mph - N/A   Haze
9:53 AM 53.1 °F 48.0 °F 83% 29.74 in 6.0 mi ENE 8.1 mph - N/A   Haze
10:32 AM 55.4 °F 48.2 °F 77% 29.71 in 6.0 mi NE 6.9 mph - N/A   Haze
10:53 AM 55.0 °F 48.9 °F 80% 29.75 in 6.0 mi ENE 5.8 mph - N/A   Haze
11:53 AM 57.0 °F 51.1 °F 81% 29.75 in 5.0 mi East 6.9 mph - N/A   Haze
12:42 PM 59.0 °F 51.8 °F 77% 29.70 in 4.0 mi Variable 3.5 mph - N/A   Haze
12:53 PM 57.2 °F 51.8 °F 82% 29.70 in 5.0 mi Calm Calm - N/A   Haze
1:15 PM 57.2 °F 51.8 °F 82% 29.68 in 2.5 mi NE 6.9 mph - 0.05 in Rain Light Rain
1:23 PM 57.2 °F 51.8 °F 82% 29.66 in 4.0 mi NE 8.1 mph - 0.05 in Rain Light Rain
1:53 PM 57.9 °F 52.0 °F 81% 29.68 in 4.0 mi NNE 5.8 mph - 0.05 in   Haze
2:19 PM 57.2 °F 51.8 °F 82% 29.63 in 4.0 mi NE 8.1 mph - N/A Thunderstorm Haze
2:42 PM 57.2 °F 51.8 °F 82% 29.65 in 1.8 mi NE 5.8 mph - 0.01 in Rain , Thunderstorm Thunderstorms and Rain
2:53 PM 55.9 °F 52.0 °F 87% 29.69 in 1.2 mi NE 6.9 mph - 0.15 in Rain , Thunderstorm Thunderstorms and Rain
3:39 PM 55.4 °F 53.6 °F 94% 29.69 in 1.0 mi North 5.8 mph - 0.24 in Rain Rain
3:53 PM 55.4 °F 53.6 °F 94% 29.64 in 1.0 mi NE 12.7 mph 18.4 mph N/A Rain Rain
4:15 PM 55.4 °F 53.6 °F 94% 29.60 in 3.0 mi ENE 12.7 mph 26.5 mph 0.06 in Rain Light Rain
4:41 PM 57.2 °F 53.6 °F 88% 29.58 in 4.0 mi NE 10.4 mph 17.3 mph 0.06 in   Mostly Cloudy
4:53 PM 57.0 °F 53.1 °F 87% 29.62 in 4.0 mi NE 5.8 mph - 0.06 in   Mostly Cloudy
5:40 PM 57.2 °F 53.6 °F 88% 29.60 in 5.0 mi NNE 5.8 mph - N/A   Haze
5:53 PM 57.9 °F 53.1 °F 84% 29.64 in 5.0 mi North 5.8 mph - N/A   Haze
6:53 PM 57.0 °F 53.1 °F 87% 29.63 in 3.0 mi NW 3.5 mph - 0.00 in Rain Light Rain
7:53 PM 55.9 °F 53.1 °F 90% 29.60 in 7.0 mi ENE 4.6 mph - 0.02 in   Overcast
8:08 PM 55.4 °F 53.6 °F 94% 29.61 in 8.0 mi Variable 5.8 mph - N/A Thunderstorm Overcast
8:53 PM 55.0 °F 52.0 °F 89% 29.60 in 6.0 mi ENE 9.2 mph 16.1 mph 0.04 in Rain , Thunderstorm Light Rain
9:05 PM 55.4 °F 51.8 °F 88% 29.51 in 7.0 mi ENE 15.0 mph 28.8 mph 0.03 in Rain Light Rain
9:17 PM 55.4 °F 51.8 °F 88% 29.53 in 10.0 mi East 13.8 mph 20.7 mph 0.03 in   Overcast
9:50 PM 53.6 °F 51.8 °F 94% 29.54 in 10.0 mi East 9.2 mph - N/A Thunderstorm Scattered Clouds
9:53 PM 54.0 °F 51.1 °F 90% 29.57 in 10.0 mi East 8.1 mph - 0.03 in Thunderstorm Scattered Clouds
10:05 PM 53.6 °F 51.8 °F 94% 29.54 in 10.0 mi East 8.1 mph - N/A   Scattered Clouds
10:24 PM 53.6 °F 51.8 °F 94% 29.53 in 10.0 mi NE 4.6 mph - N/A   Scattered Clouds
10:41 PM 53.6 °F 50.0 °F 88% 29.53 in 10.0 mi North 3.5 mph - N/A   Mostly Cloudy
10:53 PM 53.1 °F 50.0 °F 89% 29.55 in 10.0 mi NE 5.8 mph - N/A   Overcast
11:53 PM 53.1 °F 50.0 °F 89% 29.52 in 10.0 mi East 4.6 mph - N/A   Overcast